Weather History for Sterling, IL

Change the Weather History Date:

Monday, November 5, 2012

  Actual Average Record
Temperature  
Mean Temperature 38 °F -  
Max Temperature 48 °F 50 °F 73 °F (2008)
Min Temperature 28 °F 33 °F 26 °F (2006)
Degree Days  
Heating Degree Days 27    
Moisture  
Dew Point 27 °F    
Average Humidity 74    
Maximum Humidity 93    
Minimum Humidity 50    
Precipitation  
Precipitation 0.00 in - - ()
Sea Level Pressure  
Sea Level Pressure 30.16 in    
Wind  
Wind Speed 6 mph (East)    
Max Wind Speed 14 mph    
Max Gust Speed 16 mph    
Visibility 8 miles    
Events      
Averages and records for this station are not official NWS values.
T = Trace of Precipitation, MM = Missing Value Source: NWS Daily Summary

Daily Weather History Graph

Daily Weather History Graph

Search for Another Location

Airport:

Trip Planner

Search our weather history database for the weather conditions in past years. The results will help you decide how hot, cold, wet, or windy it might be!

Date:

Astronomy

Nov. 05, 2012 Rise Set
Actual Time 6:36 AM CST 4:47 PM CST
Civil Twilight 6:07 AM CST 5:16 PM CST
Nautical Twilight 5:34 AM CST 5:49 PM CST
Astronomical Twilight 5:01 AM CST 6:22 PM CST
Moon 10:25 PM CST (11/5) 11:55 AM CST (11/5)
Length of Visible Light 11h 09m
Length of Day
10h 11m
Waning Gibbous, 62% of the Moon is Illuminated
Nov 5
Waning Gibbous
Nov 6
Last Quarter
Nov 13
New
Nov 20
First Quarter
Nov 28
Full

Hourly Weather History & Observations

Time (CST) Temp. Windchill Dew Point Humidity Pressure Visibility Wind Dir Wind Speed Gust Speed Precip Events Conditions
12:15 AM 30.2 °F 26.7 °F 26.6 °F 86% 30.19 in 10.0 mi ESE 3.5 mph - N/A   Partly Cloudy
12:35 AM 30.2 °F 26.7 °F 24.8 °F 80% 30.19 in 10.0 mi ESE 3.5 mph - N/A   Mostly Cloudy
12:55 AM 30.2 °F 24.3 °F 26.6 °F 86% 30.19 in 10.0 mi East 5.8 mph - N/A   Mostly Cloudy
1:15 AM 30.2 °F 26.7 °F 26.6 °F 86% 30.19 in 10.0 mi East 3.5 mph - N/A   Partly Cloudy
1:35 AM 30.2 °F 25.4 °F 26.6 °F 86% 30.19 in 10.0 mi East 4.6 mph - N/A   Clear
1:55 AM 28.4 °F 24.6 °F 24.8 °F 86% 30.19 in 10.0 mi East 3.5 mph - N/A   Clear
2:15 AM 28.4 °F 24.6 °F 26.6 °F 93% 30.19 in 10.0 mi East 3.5 mph - N/A   Clear
2:35 AM 28.4 °F - 26.6 °F 93% 30.19 in 9.0 mi Calm Calm - N/A   Clear
2:55 AM 28.4 °F 23.3 °F 26.6 °F 93% 30.19 in 8.0 mi ENE 4.6 mph - N/A   Clear
3:15 AM 28.4 °F 22.2 °F 26.6 °F 93% 30.18 in 7.0 mi ENE 5.8 mph - N/A   Clear
3:35 AM 28.4 °F 22.2 °F 26.6 °F 93% 30.18 in 7.0 mi ENE 5.8 mph - N/A   Clear
3:55 AM 28.4 °F 23.3 °F 26.6 °F 93% 30.18 in 6.0 mi ENE 4.6 mph - N/A   Clear
4:15 AM 28.4 °F 22.2 °F 26.6 °F 93% 30.18 in 5.0 mi East 5.8 mph - N/A   Clear
4:35 AM 28.4 °F 23.3 °F 24.8 °F 86% 30.18 in 5.0 mi ENE 4.6 mph - N/A   Clear
4:55 AM 28.4 °F 23.3 °F 24.8 °F 86% 30.18 in 5.0 mi ENE 4.6 mph - N/A   Clear
5:15 AM 28.4 °F 22.2 °F 24.8 °F 86% 30.18 in 5.0 mi East 5.8 mph - N/A   Clear
5:35 AM 28.4 °F 23.3 °F 24.8 °F 86% 30.18 in 4.0 mi East 4.6 mph - N/A   Clear
5:55 AM 28.4 °F 23.3 °F 24.8 °F 86% 30.17 in 3.0 mi East 4.6 mph - N/A   Clear
6:35 AM 28.4 °F 22.2 °F 26.6 °F 93% 30.18 in 1.8 mi East 5.8 mph - N/A   Clear
6:55 AM 28.4 °F 22.2 °F 24.8 °F 86% 30.18 in 1.2 mi East 5.8 mph - N/A   Clear
7:15 AM 28.4 °F 22.2 °F 26.6 °F 93% 30.18 in 1.5 mi ENE 5.8 mph - N/A   Clear
7:35 AM 30.2 °F 22.6 °F 28.4 °F 93% 30.18 in 1.8 mi ENE 8.1 mph - N/A   Clear
7:55 AM 33.8 °F 26.4 °F 28.4 °F 81% 30.19 in 5.0 mi ENE 9.2 mph - N/A   Clear
8:15 AM 35.6 °F 28.0 °F 30.2 °F 81% 30.19 in 9.0 mi ENE 10.4 mph - N/A   Clear
8:35 AM 37.4 °F 31.4 °F 33.8 °F 87% 30.19 in 9.0 mi ENE 8.1 mph - N/A   Clear
8:55 AM 39.2 °F 32.0 °F 33.8 °F 81% 30.19 in 10.0 mi East 11.5 mph - N/A   Clear
9:15 AM 41.0 °F 34.7 °F 33.8 °F 76% 30.19 in 10.0 mi ENE 10.4 mph - N/A   Clear
9:35 AM 42.8 °F 36.6 °F 33.8 °F 70% 30.19 in 10.0 mi East 11.5 mph - N/A   Clear
10:15 AM 44.6 °F 38.1 °F 33.8 °F 66% 30.19 in 10.0 mi East 13.8 mph - N/A   Clear
10:35 AM 44.6 °F 38.4 °F 30.2 °F 57% 30.19 in 10.0 mi East 12.7 mph - N/A   Scattered Clouds
11:15 AM 44.6 °F 38.4 °F 30.2 °F 57% 30.19 in 10.0 mi East 12.7 mph 16.1 mph N/A   Overcast
11:35 AM 44.6 °F 40.7 °F 30.2 °F 57% 30.18 in 10.0 mi ENE 6.9 mph - N/A   Mostly Cloudy
11:55 AM 44.6 °F 39.2 °F 30.2 °F 57% 30.17 in 10.0 mi ENE 10.4 mph - N/A   Mostly Cloudy
12:15 PM 48.2 °F - 30.2 °F 50% 30.16 in 10.0 mi ESE 10.4 mph - N/A   Overcast
12:35 PM 46.4 °F 41.1 °F 30.2 °F 53% 30.16 in 10.0 mi East 11.5 mph 16.1 mph N/A   Scattered Clouds
12:55 PM 44.6 °F 39.2 °F 28.4 °F 53% 30.15 in 10.0 mi East 10.4 mph - N/A   Clear
1:15 PM 46.4 °F 40.7 °F 28.4 °F 50% 30.15 in 10.0 mi East 12.7 mph - N/A   Partly Cloudy
1:35 PM 48.2 °F - 30.2 °F 50% 30.14 in 10.0 mi ENE 11.5 mph - N/A   Partly Cloudy
2:15 PM 44.6 °F 40.7 °F 28.4 °F 53% 30.14 in 10.0 mi ENE 6.9 mph - N/A   Clear
2:35 PM 48.2 °F - 30.2 °F 50% 30.14 in 10.0 mi ENE 5.8 mph - N/A   Scattered Clouds
2:55 PM 46.4 °F 40.7 °F 28.4 °F 50% 30.14 in 10.0 mi East 12.7 mph - N/A   Overcast
3:15 PM 44.6 °F 39.7 °F 28.4 °F 53% 30.14 in 10.0 mi East 9.2 mph - N/A   Overcast
3:55 PM 44.6 °F 39.7 °F 28.4 °F 53% 30.14 in 10.0 mi East 9.2 mph - N/A   Overcast
4:35 PM 42.8 °F 37.5 °F 26.6 °F 53% 30.14 in 10.0 mi ESE 9.2 mph - N/A   Mostly Cloudy
4:55 PM 41.0 °F 35.8 °F 28.4 °F 61% 30.15 in 10.0 mi ESE 8.1 mph - N/A   Scattered Clouds
5:15 PM 39.2 °F 33.6 °F 28.4 °F 65% 30.15 in 10.0 mi ESE 8.1 mph - N/A   Mostly Cloudy
5:35 PM 39.2 °F 35.9 °F 26.6 °F 61% 30.15 in 10.0 mi SE 4.6 mph - N/A   Overcast
5:55 PM 39.2 °F 35.9 °F 26.6 °F 61% 30.16 in 10.0 mi SE 4.6 mph - N/A   Overcast
6:15 PM 39.2 °F 35.9 °F 26.6 °F 61% 30.16 in 10.0 mi SE 4.6 mph - N/A   Overcast
6:35 PM 39.2 °F 35.9 °F 26.6 °F 61% 30.16 in 10.0 mi SSE 4.6 mph - N/A   Overcast
6:55 PM 37.4 °F 33.8 °F 26.6 °F 65% 30.15 in 10.0 mi SSE 4.6 mph - N/A   Scattered Clouds
7:15 PM 37.4 °F - 26.6 °F 65% 30.15 in 10.0 mi Calm Calm - N/A   Clear
7:35 PM 32.0 °F 27.5 °F 24.8 °F 75% 30.15 in 10.0 mi SE 4.6 mph - N/A   Clear
7:55 PM 32.0 °F 26.4 °F 24.8 °F 75% 30.14 in 10.0 mi SE 5.8 mph - N/A   Clear
8:15 PM 30.2 °F 26.7 °F 23.0 °F 75% 30.14 in 10.0 mi SE 3.5 mph - N/A   Clear
8:35 PM 33.8 °F 29.6 °F 26.6 °F 75% 30.14 in 10.0 mi SSE 4.6 mph - N/A   Clear
8:55 PM 33.8 °F 29.6 °F 26.6 °F 75% 30.13 in 10.0 mi SE 4.6 mph - N/A   Clear
9:15 PM 28.4 °F 24.6 °F 23.0 °F 80% 30.13 in 10.0 mi SE 3.5 mph - N/A   Clear
9:35 PM 30.2 °F 24.3 °F 24.8 °F 80% 30.13 in 10.0 mi SE 5.8 mph - N/A   Clear
9:55 PM 28.4 °F - 24.8 °F 86% 30.14 in 10.0 mi Calm Calm - N/A   Clear
10:15 PM 28.4 °F - 24.8 °F 86% 30.13 in - Calm Calm - N/A   Unknown
10:35 PM 30.2 °F 26.7 °F 24.8 °F 80% 30.12 in - ESE 3.5 mph - N/A   Clear
10:55 PM 30.2 °F 25.4 °F 24.8 °F 80% 30.11 in 9.0 mi ESE 4.6 mph - N/A   Clear
11:15 PM 28.4 °F 24.6 °F 23.0 °F 80% 30.11 in 7.0 mi ESE 3.5 mph - N/A   Clear
11:35 PM 28.4 °F 23.3 °F 24.8 °F 86% 30.11 in 7.0 mi ESE 4.6 mph - N/A   Clear
11:55 PM 28.4 °F 22.2 °F 23.0 °F 80% 30.11 in 8.0 mi SE 5.8 mph - N/A   Clear